| time (UTC) | temp F | wind direction | speed MPH | gust MPH | rain 1hr in | rain 24hr in | rain mn in | humidity % | barometer mb |
| 20260906180507 | 77 | 327 | 3.0 | 5.0 | 0.00 | 0.00 | 0.00 | 69 | 1016.4 |
| 20260906180007 | 77 | 170 | 1.0 | 5.0 | 0.00 | 0.00 | 0.00 | 71 | 1016.5 |
| 20260906175505 | 77 | 42 | 2.0 | 5.0 | 0.00 | 0.00 | 0.00 | 73 | 1016.6 |
| 20260906175007 | 75 | 23 | 1.0 | 7.0 | 0.00 | 0.00 | 0.00 | 75 | 1016.6 |
| 20260906174006 | 78 | 200 | 1.0 | 6.0 | 0.00 | 0.00 | 0.00 | 69 | 1016.5 |
| 20260906173505 | 77 | 297 | 1.0 | 7.0 | 0.00 | 0.00 | 0.00 | 72 | 1016.6 |
| 20260906172006 | 77 | 154 | 2.0 | 5.0 | 0.00 | 0.00 | 0.00 | 69 | 1016.7 |
| 20260906171006 | 77 | 176 | 0.0 | 5.0 | 0.00 | 0.00 | 0.00 | 73 | 1016.8 |
| 20260906170506 | 76 | 275 | 2.0 | 8.0 | 0.00 | 0.00 | 0.00 | 72 | 1016.8 |
| 20260906165505 | 76 | 331 | 2.0 | 5.0 | 0.00 | 0.00 | 0.00 | 73 | 1016.8 |
| 20260906165006 | 75 | 344 | 1.0 | 5.0 | 0.00 | 0.00 | 0.00 | 74 | 1016.8 |
| 20260906164505 | 75 | 175 | 3.0 | 5.0 | 0.00 | 0.00 | 0.00 | 76 | 1016.8 |
| 20260906164006 | 74 | 176 | 1.0 | 5.0 | 0.00 | 0.00 | 0.00 | 75 | 1016.8 |
| 20260906163505 | 75 | 189 | 2.0 | 5.0 | 0.00 | 0.00 | 0.00 | 74 | 1016.8 |
| 20260906163007 | 76 | 327 | 1.0 | 5.0 | 0.00 | 0.00 | 0.00 | 74 | 1016.8 |
| 20260906162504 | 75 | 283 | 2.0 | 4.0 | 0.00 | 0.00 | 0.00 | 77 | 1016.8 |
| 20260906162005 | 75 | 190 | 0.0 | 5.0 | 0.00 | 0.00 | 0.00 | 76 | 1016.8 |
| 20260906161506 | 75 | 226 | 1.0 | 4.0 | 0.00 | 0.00 | 0.00 | 77 | 1016.8 |
| 20260906160505 | 74 | 309 | 0.0 | 6.0 | 0.00 | 0.00 | 0.00 | 74 | 1016.9 |
| 20260906160007 | 74 | 329 | 1.0 | 6.0 | 0.00 | 0.00 | 0.00 | 74 | 1016.9 |
| 20260906155506 | 75 | 325 | 4.0 | 6.0 | 0.00 | 0.00 | 0.00 | 74 | 1016.9 |
| 20260906155006 | 75 | 254 | 0.0 | 3.0 | 0.00 | 0.00 | 0.00 | 75 | 1016.9 |
| 20260906154505 | 74 | 345 | 1.0 | 4.0 | 0.00 | 0.00 | 0.00 | 76 | 1016.9 |
| 20260906154007 | 74 | 315 | 2.0 | 4.0 | 0.00 | 0.00 | 0.00 | 75 | 1016.9 |
| 20260906153506 | 74 | 303 | 3.0 | 4.0 | 0.00 | 0.00 | 0.00 | 79 | 1016.9 |
| 20260906153011 | 74 | 304 | 0.0 | 3.0 | 0.00 | 0.00 | 0.00 | 81 | 1016.9 |
| 20260906152507 | 74 | 135 | 0.0 | 2.0 | 0.00 | 0.00 | 0.00 | 76 | 1016.9 |
| 20260906151506 | 73 | 230 | 0.0 | 2.0 | 0.00 | 0.00 | 0.00 | 77 | 1016.8 |
| 20260906151007 | 72 | 208 | 0.0 | 3.0 | 0.00 | 0.00 | 0.00 | 78 | 1017.0 |
| 20260906150505 | 73 | 206 | 0.0 | 3.0 | 0.00 | 0.00 | 0.00 | 78 | 1016.9 |
| 20260906150007 | 73 | 294 | 1.0 | 3.0 | 0.00 | 0.00 | 0.00 | 78 | 1016.8 |
| 20260906145505 | 74 | 248 | 0.0 | 7.0 | 0.00 | 0.00 | 0.00 | 77 | 1016.8 |
| 20260906145007 | 73 | 246 | 0.0 | 7.0 | 0.00 | 0.00 | 0.00 | 80 | 1016.7 |
| 20260906144506 | 73 | 327 | 1.0 | 4.0 | 0.00 | 0.00 | 0.00 | 77 | 1016.7 |
| 20260906144006 | 73 | 222 | 0.0 | 5.0 | 0.00 | 0.00 | 0.00 | 78 | 1016.6 |
| 20260906143505 | 72 | 221 | 0.0 | 5.0 | 0.00 | 0.00 | 0.00 | 77 | 1016.8 |
| 20260906143008 | 72 | 225 | 1.0 | 4.0 | 0.00 | 0.00 | 0.00 | 77 | 1016.7 |
| 20260906142505 | 72 | 5 | 2.0 | 4.0 | 0.00 | 0.00 | 0.00 | 78 | 1016.6 |
| 20260906142007 | 72 | 298 | 2.0 | 8.0 | 0.00 | 0.00 | 0.00 | 79 | 1016.6 |
| 20260906141507 | 71 | 232 | 1.0 | 6.0 | 0.00 | 0.00 | 0.00 | 80 | 1016.6 |
| 20260906140506 | 71 | 304 | 1.0 | 4.0 | 0.00 | 0.00 | 0.00 | 80 | 1016.6 |
| 20260906140008 | 70 | 169 | 2.0 | 6.0 | 0.00 | 0.00 | 0.00 | 80 | 1016.5 |
| 20260906135504 | 70 | 227 | 0.0 | 6.0 | 0.00 | 0.00 | 0.00 | 82 | 1016.5 |
| 20260906135007 | 70 | 262 | 2.0 | 4.0 | 0.00 | 0.00 | 0.00 | 82 | 1016.6 |
| 20260906134504 | 69 | 283 | 0.0 | 5.0 | 0.00 | 0.00 | 0.00 | 83 | 1016.5 |
| 20260906134005 | 69 | 153 | 1.0 | 4.0 | 0.00 | 0.00 | 0.00 | 85 | 1016.5 |
| 20260906133504 | 68 | 28 | 1.0 | 7.0 | 0.00 | 0.00 | 0.00 | 86 | 1016.5 |
| 20260906133007 | 68 | 269 | 1.0 | 4.0 | 0.00 | 0.00 | 0.00 | 87 | 1016.4 |
| 20260906132504 | 68 | 182 | 1.0 | 5.0 | 0.00 | 0.00 | 0.00 | 87 | 1016.4 |
| 20260906132006 | 68 | 324 | 0.0 | 3.0 | 0.00 | 0.00 | 0.00 | 87 | 1016.4 |
| 20260906131504 | 67 | 276 | 0.0 | 5.0 | 0.00 | 0.00 | 0.00 | 88 | 1016.4 |
| 20260906130504 | 67 | 261 | 1.0 | 4.0 | 0.00 | 0.00 | 0.00 | 89 | 1016.3 |
| 20260906130006 | 66 | 76 | 1.0 | 8.0 | 0.00 | 0.00 | 0.00 | 90 | 1016.3 |
| 20260906125505 | 66 | 306 | 2.0 | 9.0 | 0.00 | 0.00 | 0.00 | 90 | 1016.3 |
| 20260906125007 | 66 | 348 | 1.0 | 4.0 | 0.00 | 0.00 | 0.00 | 91 | 1016.3 |
| 20260906124505 | 65 | 217 | 0.0 | 2.0 | 0.00 | 0.00 | 0.00 | 92 | 1016.3 |
| 20260906124005 | 65 | 314 | 0.0 | 3.0 | 0.00 | 0.00 | 0.00 | 92 | 1016.3 |
| 20260906123506 | 65 | 336 | 1.0 | 4.0 | 0.00 | 0.00 | 0.00 | 92 | 1016.2 |
| 20260906123005 | 65 | 336 | 2.0 | 4.0 | 0.00 | 0.00 | 0.00 | 93 | 1016.2 |
| 20260906122504 | 64 | 338 | 1.0 | 4.0 | 0.00 | 0.00 | 0.00 | 93 | 1016.2 |
| 20260906122007 | 64 | 325 | 2.0 | 4.0 | 0.00 | 0.00 | 0.00 | 94 | 1016.1 |
| 20260906121504 | 64 | 318 | 1.0 | 4.0 | 0.00 | 0.00 | 0.00 | 95 | 1016.1 |
| 20260906120506 | 63 | 325 | 1.0 | 5.0 | 0.00 | 0.00 | 0.00 | 95 | 1016.0 |
| 20260906120006 | 63 | 320 | 1.0 | 6.0 | 0.00 | 0.00 | 0.00 | 95 | 1015.8 |
| 20260906115006 | 62 | 327 | 2.0 | 4.0 | 0.00 | 0.00 | 0.00 | 96 | 1015.9 |
| 20260906114504 | 62 | 310 | 1.0 | 3.0 | 0.00 | 0.00 | 0.00 | 96 | 1015.8 |
| 20260906113505 | 61 | 322 | 1.0 | 4.0 | 0.00 | 0.00 | 0.00 | 96 | 1015.8 |
| 20260906113005 | 61 | 329 | 1.0 | 3.0 | 0.00 | 0.00 | 0.00 | 96 | 1015.7 |
| 20260906112504 | 61 | 305 | 0.0 | 0.0 | 0.00 | 0.00 | 0.00 | 96 | 1015.7 |
| 20260906112007 | 61 | 305 | 0.0 | 0.0 | 0.00 | 0.00 | 0.00 | 96 | 1015.6 |
| 20260906111504 | 60 | 305 | 0.0 | 0.0 | 0.00 | 0.00 | 0.00 | 95 | 1015.5 |
| 20260906111005 | 60 | 305 | 0.0 | 0.0 | 0.00 | 0.00 | 0.00 | 95 | 1015.5 |
| 20260906110504 | 60 | 305 | 0.0 | 0.0 | 0.00 | 0.00 | 0.00 | 95 | 1015.4 |
| 20260906110009 | 60 | 305 | 0.0 | 0.0 | 0.00 | 0.00 | 0.00 | 95 | 1015.5 |
| 20260906104506 | 60 | 305 | 0.0 | 0.0 | 0.00 | 0.00 | 0.00 | 95 | 1015.0 |
| 20260906104005 | 60 | 305 | 0.0 | 0.0 | 0.00 | 0.00 | 0.00 | 95 | 1015.1 |
| 20260906103506 | 60 | 305 | 0.0 | 0.0 | 0.00 | 0.00 | 0.00 | 95 | 1015.0 |
| 20260906102007 | 61 | 305 | 0.0 | 0.0 | 0.00 | 0.00 | 0.00 | 95 | 1014.9 |
| 20260906101504 | 61 | 305 | 0.0 | 0.0 | 0.00 | 0.00 | 0.00 | 95 | 1014.8 |
| 20260906101005 | 61 | 305 | 0.0 | 0.0 | 0.00 | 0.00 | 0.00 | 95 | 1014.8 |
| 20260906100506 | 61 | 305 | 0.0 | 0.0 | 0.00 | 0.00 | 0.00 | 95 | 1014.6 |
| 20260906100006 | 61 | 305 | 0.0 | 0.0 | 0.00 | 0.00 | 0.00 | 95 | 1014.6 |
| 20260906095006 | 61 | 305 | 0.0 | 0.0 | 0.00 | 0.00 | 0.00 | 95 | 1014.5 |
| 20260906094504 | 61 | 305 | 0.0 | 0.0 | 0.00 | 0.00 | 0.00 | 95 | 1014.5 |
| 20260906094006 | 61 | 305 | 0.0 | 0.0 | 0.00 | 0.00 | 0.00 | 95 | 1014.5 |
| 20260906093506 | 61 | 305 | 0.0 | 0.0 | 0.00 | 0.00 | 0.00 | 95 | 1014.5 |
| 20260906093005 | 61 | 305 | 0.0 | 0.0 | 0.00 | 0.00 | 0.00 | 95 | 1014.3 |
| 20260906092504 | 61 | 305 | 0.0 | 0.0 | 0.00 | 0.00 | 0.00 | 94 | 1014.2 |
| 20260906092007 | 60 | 305 | 0.0 | 0.0 | 0.00 | 0.00 | 0.00 | 94 | 1014.1 |
| 20260906091504 | 60 | 305 | 0.0 | 0.0 | 0.00 | 0.00 | 0.00 | 94 | 1014.1 |
| 20260906091005 | 61 | 305 | 0.0 | 0.0 | 0.00 | 0.00 | 0.00 | 94 | 1014.0 |
| 20260906090506 | 61 | 305 | 0.0 | 0.0 | 0.00 | 0.00 | 0.00 | 94 | 1013.9 |
| 20260906090009 | 61 | 305 | 0.0 | 0.0 | 0.00 | 0.00 | 0.00 | 94 | 1013.8 |
| 20260906085504 | 61 | 305 | 0.0 | 0.0 | 0.00 | 0.00 | 0.00 | 94 | 1013.7 |
| 20260906085006 | 61 | 305 | 0.0 | 0.0 | 0.00 | 0.00 | 0.00 | 94 | 1013.7 |
| 20260906084504 | 61 | 305 | 0.0 | 0.0 | 0.00 | 0.00 | 0.00 | 94 | 1013.7 |
| 20260906084005 | 61 | 305 | 0.0 | 0.0 | 0.00 | 0.00 | 0.00 | 94 | 1013.7 |
| 20260906083505 | 61 | 305 | 0.0 | 0.0 | 0.00 | 0.00 | 0.00 | 94 | 1013.7 |
| 20260906083006 | 61 | 305 | 0.0 | 0.0 | 0.00 | 0.00 | 0.00 | 94 | 1013.6 |
| 20260906082505 | 61 | 305 | 0.0 | 0.0 | 0.00 | 0.00 | 0.00 | 94 | 1013.6 |
| 20260906082006 | 61 | 305 | 0.0 | 0.0 | 0.00 | 0.00 | 0.00 | 94 | 1013.7 |
| 20260906080504 | 61 | 305 | 0.0 | 0.0 | 0.00 | 0.00 | 0.00 | 94 | 1013.5 |
| 20260906080009 | 61 | 305 | 0.0 | 0.0 | 0.00 | 0.00 | 0.00 | 94 | 1013.4 |
| 20260906075504 | 61 | 305 | 0.0 | 0.0 | 0.00 | 0.00 | 0.00 | 93 | 1013.5 |
| 20260906075005 | 61 | 305 | 0.0 | 0.0 | 0.00 | 0.00 | 0.00 | 93 | 1013.6 |
| 20260906074005 | 61 | 305 | 0.0 | 0.0 | 0.00 | 0.00 | 0.00 | 94 | 1013.5 |
| 20260906073504 | 62 | 305 | 0.0 | 0.0 | 0.00 | 0.00 | 0.00 | 94 | 1013.3 |
| 20260906073007 | 62 | 305 | 0.0 | 0.0 | 0.00 | 0.00 | 0.00 | 94 | 1013.3 |
| 20260906072504 | 62 | 305 | 0.0 | 0.0 | 0.00 | 0.00 | 0.00 | 94 | 1013.3 |
| 20260906072007 | 62 | 305 | 0.0 | 0.0 | 0.00 | 0.00 | 0.00 | 93 | 1013.4 |
| 20260906070505 | 62 | 305 | 0.0 | 0.0 | 0.00 | 0.00 | 0.00 | 93 | 1013.3 |
| 20260906070006 | 62 | 305 | 0.0 | 0.0 | 0.00 | 0.00 | 0.00 | 93 | 1013.3 |
| 20260906065504 | 62 | 305 | 0.0 | 0.0 | 0.00 | 0.00 | 0.00 | 93 | 1013.3 |
| 20260906065006 | 62 | 305 | 0.0 | 0.0 | 0.00 | 0.00 | 0.00 | 93 | 1013.2 |
| 20260906064504 | 62 | 305 | 0.0 | 0.0 | 0.00 | 0.00 | 0.00 | 93 | 1013.2 |
| 20260906064005 | 62 | 305 | 0.0 | 0.0 | 0.00 | 0.00 | 0.00 | 93 | 1013.4 |
| 20260906063506 | 62 | 305 | 0.0 | 0.0 | 0.00 | 0.00 | 0.00 | 93 | 1013.3 |
| 20260906063005 | 62 | 305 | 0.0 | 0.0 | 0.00 | 0.00 | 0.00 | 93 | 1013.3 |
| 20260906062504 | 62 | 305 | 0.0 | 0.0 | 0.00 | 0.00 | 0.00 | 93 | 1013.5 |
| 20260906062006 | 62 | 305 | 0.0 | 0.0 | 0.00 | 0.00 | 0.00 | 93 | 1013.5 |
| 20260906061504 | 62 | 305 | 0.0 | 0.0 | 0.00 | 0.00 | 0.00 | 93 | 1013.5 |
| 20260906061005 | 62 | 305 | 0.0 | 0.0 | 0.00 | 0.00 | 0.00 | 93 | 1013.5 |
| 20260906060506 | 62 | 305 | 0.0 | 0.0 | 0.00 | 0.00 | 0.00 | 93 | 1013.6 |
| 20260906060006 | 62 | 305 | 0.0 | 0.0 | 0.00 | 0.00 | 0.00 | 93 | 1013.6 |
| 20260906055504 | 63 | 305 | 0.0 | 0.0 | 0.00 | 0.00 | 0.00 | 93 | 1013.5 |
| 20260906054006 | 63 | 305 | 0.0 | 0.0 | 0.00 | 0.00 | 0.00 | 93 | 1013.6 |
| 20260906053506 | 63 | 305 | 0.0 | 0.0 | 0.00 | 0.00 | 0.00 | 93 | 1013.6 |
| 20260906053005 | 63 | 305 | 0.0 | 0.0 | 0.00 | 0.00 | 0.00 | 93 | 1013.7 |
| 20260906052504 | 63 | 305 | 0.0 | 0.0 | 0.00 | 0.00 | 0.00 | 92 | 1013.8 |
| 20260906052007 | 63 | 305 | 0.0 | 0.0 | 0.00 | 0.00 | 0.00 | 92 | 1013.8 |
| 20260906051504 | 63 | 305 | 0.0 | 0.0 | 0.00 | 0.00 | 0.00 | 92 | 1013.8 |
| 20260906051006 | 63 | 305 | 0.0 | 0.0 | 0.00 | 0.00 | 0.00 | 92 | 1013.9 |
| 20260906050504 | 63 | 305 | 0.0 | 0.0 | 0.00 | 0.00 | 0.00 | 92 | 1013.9 |
| 20260906050006 | 63 | 305 | 0.0 | 0.0 | 0.00 | 0.01 | 0.00 | 92 | 1013.8 |
| 20260906045505 | 64 | 305 | 0.0 | 0.0 | 0.00 | 0.01 | 0.00 | 92 | 1013.8 |
| 20260906045004 | 64 | 305 | 0.0 | 0.0 | 0.00 | 0.01 | 0.00 | 92 | 1013.8 |
| 20260906044005 | 64 | 305 | 0.0 | 0.0 | 0.00 | 0.01 | 0.00 | 92 | 1013.8 |
| 20260906043503 | 64 | 305 | 0.0 | 0.0 | 0.00 | 0.01 | 0.00 | 92 | 1013.8 |
| 20260906043005 | 64 | 305 | 0.0 | 0.0 | 0.00 | 0.01 | 0.00 | 92 | 1013.9 |
| 20260906042004 | 64 | 305 | 0.0 | 0.0 | 0.00 | 0.01 | 0.00 | 91 | 1013.9 |
| 20260906041503 | 64 | 305 | 0.0 | 0.0 | 0.00 | 0.01 | 0.00 | 91 | 1013.9 |
| 20260906040505 | 64 | 305 | 0.0 | 0.0 | 0.00 | 0.01 | 0.00 | 90 | 1014.0 |
| 20260906040012 | 64 | 305 | 0.0 | 0.0 | 0.00 | 0.01 | 0.00 | 90 | 1014.0 |
| 20260906035505 | 64 | 305 | 0.0 | 0.0 | 0.00 | 0.06 | 0.01 | 90 | 1013.9 |
| 20260906035006 | 64 | 305 | 0.0 | 0.0 | 0.00 | 0.06 | 0.01 | 90 | 1013.8 |
| 20260906034506 | 64 | 305 | 0.0 | 0.0 | 0.00 | 0.06 | 0.01 | 89 | 1013.8 |
| 20260906034007 | 65 | 305 | 0.0 | 0.0 | 0.00 | 0.06 | 0.01 | 89 | 1013.9 |
| 20260906033505 | 65 | 305 | 0.0 | 0.0 | 0.00 | 0.06 | 0.01 | 89 | 1013.9 |
| 20260906033008 | 65 | 305 | 0.0 | 0.0 | 0.00 | 0.06 | 0.01 | 89 | 1013.9 |
| 20260906032505 | 65 | 305 | 0.0 | 0.0 | 0.00 | 0.06 | 0.01 | 89 | 1013.9 |
| 20260906032006 | 65 | 305 | 0.0 | 0.0 | 0.00 | 0.06 | 0.01 | 89 | 1013.9 |
| 20260906031537 | 65 | 305 | 0.0 | 0.0 | 0.00 | 0.06 | 0.01 | 88 | 1013.9 |
| 20260906031008 | 65 | 305 | 0.0 | 0.0 | 0.00 | 0.06 | 0.01 | 88 | 1013.8 |
| 20260906030506 | 65 | 305 | 0.0 | 0.0 | 0.00 | 0.06 | 0.01 | 88 | 1013.7 |
| 20260906030008 | 65 | 305 | 0.0 | 0.0 | 0.00 | 0.06 | 0.01 | 88 | 1013.6 |
| 20260906025508 | 65 | 305 | 0.0 | 0.0 | 0.00 | 0.06 | 0.01 | 88 | 1013.7 |
| 20260906025008 | 66 | 305 | 0.0 | 0.0 | 0.00 | 0.06 | 0.01 | 88 | 1013.6 |
| 20260906024507 | 66 | 305 | 0.0 | 0.0 | 0.00 | 0.06 | 0.01 | 88 | 1013.7 |
| 20260906024008 | 66 | 305 | 0.0 | 0.0 | 0.00 | 0.06 | 0.01 | 87 | 1013.8 |
| 20260906023505 | 66 | 305 | 0.0 | 0.0 | 0.00 | 0.06 | 0.01 | 88 | 1013.6 |
| 20260906023008 | 66 | 305 | 0.0 | 0.0 | 0.00 | 0.06 | 0.01 | 88 | 1013.6 |
| 20260906022505 | 66 | 305 | 0.0 | 0.0 | 0.00 | 0.06 | 0.01 | 88 | 1013.6 |
| 20260906021506 | 67 | 305 | 0.0 | 0.0 | 0.00 | 0.06 | 0.01 | 88 | 1013.6 |
| 20260906021007 | 67 | 305 | 0.0 | 0.0 | 0.00 | 0.06 | 0.01 | 87 | 1013.6 |
| 20260906020505 | 67 | 305 | 0.0 | 0.0 | 0.00 | 0.06 | 0.01 | 87 | 1013.5 |
| 20260906020007 | 67 | 305 | 0.0 | 0.0 | 0.00 | 0.06 | 0.01 | 87 | 1013.6 |
| 20260906015507 | 67 | 305 | 0.0 | 0.0 | 0.00 | 0.06 | 0.01 | 87 | 1013.6 |
| 20260906015006 | 67 | 305 | 0.0 | 0.0 | 0.00 | 0.06 | 0.01 | 87 | 1013.6 |
| 20260906014505 | 67 | 305 | 0.0 | 0.0 | 0.00 | 0.06 | 0.01 | 87 | 1013.5 |
| 20260906014009 | 67 | 305 | 0.0 | 0.0 | 0.00 | 0.06 | 0.01 | 87 | 1013.5 |
| 20260906013506 | 67 | 305 | 0.0 | 0.0 | 0.00 | 0.06 | 0.01 | 87 | 1013.5 |
| 20260906013006 | 67 | 305 | 0.0 | 0.0 | 0.00 | 0.06 | 0.01 | 86 | 1013.5 |
| 20260906012507 | 67 | 305 | 0.0 | 0.0 | 0.00 | 0.06 | 0.01 | 86 | 1013.3 |
| 20260906012007 | 68 | 301 | 0.0 | 0.0 | 0.00 | 0.06 | 0.01 | 86 | 1013.3 |
| 20260906011505 | 68 | 319 | 0.0 | 0.0 | 0.00 | 0.06 | 0.01 | 85 | 1013.2 |
| 20260906011007 | 68 | 315 | 0.0 | 0.0 | 0.00 | 0.06 | 0.01 | 85 | 1013.2 |
| 20260906010505 | 68 | 315 | 0.0 | 0.0 | 0.00 | 0.06 | 0.01 | 84 | 1013.1 |
| 20260906010007 | 68 | 315 | 0.0 | 0.0 | 0.00 | 0.06 | 0.01 | 84 | 1013.1 |
| 20260906005506 | 68 | 315 | 0.0 | 2.0 | 0.00 | 0.06 | 0.01 | 83 | 1013.0 |
| 20260906004505 | 69 | 315 | 1.0 | 3.0 | 0.00 | 0.06 | 0.01 | 82 | 1013.0 |
| 20260906004008 | 69 | 315 | 2.0 | 3.0 | 0.00 | 0.06 | 0.01 | 82 | 1013.1 |
| 20260906003505 | 69 | 315 | 0.0 | 2.0 | 0.00 | 0.06 | 0.01 | 81 | 1013.0 |
| 20260906003006 | 70 | 315 | 0.0 | 0.0 | 0.00 | 0.06 | 0.01 | 81 | 1012.9 |
| 20260906002506 | 70 | 315 | 0.0 | 0.0 | 0.00 | 0.06 | 0.01 | 80 | 1012.9 |
| 20260906002007 | 70 | 315 | 0.0 | 0.0 | 0.00 | 0.06 | 0.01 | 80 | 1012.7 |
| 20260906001505 | 70 | 315 | 0.0 | 0.0 | 0.00 | 0.06 | 0.01 | 79 | 1012.7 |
| 20260906000505 | 70 | 315 | 0.0 | 0.0 | 0.00 | 0.06 | 0.01 | 79 | 1012.5 |
| 20260905235506 | 71 | 315 | 0.0 | 0.0 | 0.00 | 0.06 | 0.01 | 79 | 1012.4 |
| 20260905235006 | 71 | 315 | 0.0 | 0.0 | 0.00 | 0.06 | 0.01 | 79 | 1012.5 |
| 20260905234506 | 71 | 315 | 0.0 | 0.0 | 0.00 | 0.06 | 0.01 | 79 | 1012.3 |
| 20260905234011 | 71 | 315 | 0.0 | 0.0 | 0.00 | 0.06 | 0.01 | 79 | 1012.3 |
| 20260905233505 | 71 | 315 | 0.0 | 0.0 | 0.00 | 0.06 | 0.01 | 78 | 1012.2 |
| 20260905233006 | 71 | 315 | 0.0 | 0.0 | 0.00 | 0.06 | 0.01 | 78 | 1012.1 |
| 20260905232006 | 72 | 315 | 0.0 | 0.0 | 0.00 | 0.06 | 0.01 | 77 | 1011.9 |
| 20260905231507 | 72 | 315 | 0.0 | 0.0 | 0.00 | 0.06 | 0.01 | 76 | 1012.0 |
| 20260905231006 | 72 | 315 | 0.0 | 0.0 | 0.00 | 0.06 | 0.01 | 75 | 1012.0 |
| 20260905230505 | 73 | 315 | 0.0 | 0.0 | 0.00 | 0.06 | 0.01 | 74 | 1012.0 |
| 20260905230008 | 73 | 315 | 0.0 | 0.0 | 0.00 | 0.06 | 0.01 | 73 | 1012.0 |
| 20260905225505 | 74 | 315 | 0.0 | 0.0 | 0.00 | 0.06 | 0.01 | 72 | 1012.1 |
| 20260905225006 | 74 | 315 | 0.0 | 0.0 | 0.00 | 0.06 | 0.01 | 70 | 1012.0 |
| 20260905224507 | 74 | 315 | 0.0 | 0.0 | 0.00 | 0.06 | 0.01 | 70 | 1011.9 |
| 20260905224006 | 75 | 315 | 0.0 | 0.0 | 0.00 | 0.06 | 0.01 | 69 | 1011.8 |
| 20260905223505 | 75 | 315 | 0.0 | 0.0 | 0.00 | 0.06 | 0.01 | 67 | 1012.0 |
| 20260905223008 | 76 | 315 | 0.0 | 0.0 | 0.00 | 0.06 | 0.01 | 67 | 1011.9 |
| 20260905222505 | 76 | 315 | 0.0 | 0.0 | 0.00 | 0.06 | 0.01 | 65 | 1011.8 |
| 20260905222006 | 76 | 315 | 0.0 | 2.0 | 0.00 | 0.06 | 0.01 | 65 | 1011.8 |
| 20260905221507 | 77 | 315 | 0.0 | 2.0 | 0.00 | 0.06 | 0.01 | 64 | 1011.7 |
| 20260905221007 | 77 | 338 | 0.0 | 0.0 | 0.00 | 0.06 | 0.01 | 64 | 1011.7 |
| 20260905220505 | 77 | 338 | 0.0 | 0.0 | 0.00 | 0.06 | 0.01 | 63 | 1011.7 |
| 20260905215006 | 78 | 339 | 1.0 | 4.0 | 0.00 | 0.06 | 0.01 | 59 | 1011.7 |
| 20260905214507 | 79 | 295 | 2.0 | 4.0 | 0.00 | 0.06 | 0.01 | 59 | 1011.6 |
| 20260905213505 | 78 | 266 | 0.0 | 1.0 | 0.00 | 0.06 | 0.01 | 65 | 1011.5 |
| 20260905213011 | 79 | 266 | 0.0 | 3.0 | 0.00 | 0.06 | 0.01 | 63 | 1011.6 |
| 20260905212505 | 79 | 296 | 1.0 | 3.0 | 0.00 | 0.06 | 0.01 | 61 | 1011.6 |
| 20260905212006 | 80 | 292 | 0.0 | 2.0 | 0.00 | 0.06 | 0.01 | 61 | 1011.7 |
| 20260905211506 | 80 | 292 | 0.0 | 4.0 | 0.00 | 0.06 | 0.01 | 62 | 1011.7 |
| 20260905211007 | 80 | 333 | 1.0 | 4.0 | 0.00 | 0.06 | 0.01 | 62 | 1011.6 |
| 20260905210505 | 80 | 342 | 2.0 | 9.0 | 0.00 | 0.06 | 0.01 | 61 | 1011.6 |
| 20260905210010 | 80 | 294 | 2.0 | 9.0 | 0.00 | 0.06 | 0.01 | 61 | 1011.5 |
| 20260905205505 | 79 | 304 | 2.0 | 7.0 | 0.00 | 0.06 | 0.01 | 61 | 1011.5 |
| 20260905205006 | 79 | 306 | 1.0 | 5.0 | 0.00 | 0.06 | 0.01 | 59 | 1011.5 |
| 20260905204507 | 80 | 259 | 1.0 | 5.0 | 0.00 | 0.06 | 0.01 | 61 | 1011.5 |
| 20260905204006 | 80 | 5 | 0.0 | 5.0 | 0.00 | 0.06 | 0.01 | 62 | 1011.4 |
| 20260905203007 | 78 | 327 | 2.0 | 4.0 | 0.00 | 0.06 | 0.01 | 63 | 1011.5 |
| 20260905201505 | 80 | 341 | 2.0 | 4.0 | 0.00 | 0.06 | 0.01 | 60 | 1011.5 |
| 20260905201007 | 79 | 154 | 1.0 | 5.0 | 0.00 | 0.06 | 0.01 | 66 | 1011.5 |
| 20260905200505 | 79 | 22 | 1.0 | 4.0 | 0.00 | 0.06 | 0.01 | 64 | 1011.6 |
| 20260905200008 | 80 | 57 | 1.0 | 7.0 | 0.00 | 0.06 | 0.01 | 64 | 1011.5 |
| 20260905195509 | 81 | 258 | 1.0 | 7.0 | 0.00 | 0.06 | 0.01 | 58 | 1011.6 |
| 20260905195008 | 80 | 279 | 4.0 | 7.0 | 0.00 | 0.06 | 0.01 | 57 | 1011.6 |
| 20260905194507 | 80 | 5 | 1.0 | 5.0 | 0.00 | 0.06 | 0.01 | 62 | 1011.6 |
| 20260905194006 | 80 | 294 | 1.0 | 7.0 | 0.00 | 0.06 | 0.01 | 59 | 1011.7 |
| 20260905193505 | 81 | 301 | 2.0 | 7.0 | 0.00 | 0.06 | 0.01 | 59 | 1011.7 |
| 20260905193007 | 80 | 322 | 1.0 | 5.0 | 0.00 | 0.06 | 0.01 | 62 | 1011.9 |
| 20260905192505 | 80 | 331 | 0.0 | 8.0 | 0.00 | 0.06 | 0.01 | 60 | 1011.9 |
| 20260905192006 | 80 | 38 | 3.0 | 10.0 | 0.00 | 0.06 | 0.01 | 60 | 1011.9 |
| 20260905191006 | 80 | 337 | 2.0 | 5.0 | 0.00 | 0.06 | 0.01 | 61 | 1012.1 |
| 20260905190506 | 80 | 304 | 1.0 | 5.0 | 0.00 | 0.06 | 0.01 | 63 | 1012.1 |
| 20260905190008 | 79 | 289 | 2.0 | 4.0 | 0.00 | 0.06 | 0.01 | 66 | 1012.0 |
| 20260905185507 | 78 | 93 | 0.0 | 6.0 | 0.00 | 0.06 | 0.01 | 69 | 1012.1 |
| 20260905185006 | 79 | 321 | 3.0 | 6.0 | 0.00 | 0.06 | 0.01 | 62 | 1012.2 |
| 20260905184507 | 78 | 39 | 0.0 | 6.0 | 0.00 | 0.06 | 0.01 | 64 | 1012.2 |
| 20260905184006 | 80 | 290 | 3.0 | 6.0 | 0.00 | 0.06 | 0.01 | 62 | 1012.1 |
| 20260905183505 | 79 | 300 | 1.0 | 4.0 | 0.00 | 0.06 | 0.01 | 63 | 1012.1 |
| 20260905183007 | 78 | 337 | 0.0 | 6.0 | 0.00 | 0.06 | 0.01 | 66 | 1012.1 |
| 20260905182505 | 80 | 341 | 1.0 | 6.0 | 0.00 | 0.06 | 0.01 | 67 | 1012.1 |
| 20260905182007 | 80 | 309 | 1.0 | 4.0 | 0.00 | 0.06 | 0.01 | 67 | 1012.1 |
| 20260905181507 | 79 | 313 | 3.0 | 4.0 | 0.00 | 0.06 | 0.01 | 65 | 1012.3 |
| 20260905181006 | 78 | 169 | 0.0 | 5.0 | 0.00 | 0.06 | 0.01 | 65 | 1012.4 |